* Astronomy

Members Login
Username 
 
Password 
    Remember Me  
Post Info TOPIC: Asteroid 2016 CW137


L

Posts: 131433
Date:
Asteroid 2016 CW137
Permalink  
 


Orbital elements:
2016 CW137                                          PHA, Earth MOID = 0.0463 AU
Epoch 2016 Jan. 13.0 TT = JDT 2457400.5                 MPC
M  14.16217              (2000.0)            P               Q
n   0.26052566     Peri.  316.44313     -0.09937207     -0.88924950
a   2.4279275      Node   133.21775     +0.99462965     -0.07572175
e   0.6573305      Incl.   37.78389     -0.02893179     +0.45111144
P   3.78           H   19.4           G   0.15           U   8

MPEC 2016 - C132



__________________
Page 1 of 1  sorted by
 
Quick Reply

Please log in to post quick replies.



Create your own FREE Forum
Report Abuse
Powered by ActiveBoard